Regional Weather Roundup
Issued by NWS

Home | Current Version | Previous Version | Text Only | Print | Product List | Glossary On
Versions: 1 2 3 4 5 6 7 8 9 10 11 12 13 14 15 16 17 18 19 20 21 22 23 24 25 26 27 28 29 30 31 32 33 34 35 36 37 38 39 40 41 42 43 44 45 46 47 48 49 50
000
ASUS43 KOAX 302002
RWRNE

WEATHER ROUNDUP FOR NEBRASKA
NATIONAL WEATHER SERVICE OMAHA NE
200 PM CST FRI JAN 30 2015

NOTES: SATELLITE DATA IS BEING USED TO AUGMENT CLOUD COVER ABOVE
       12000 FEET.
       "FAIR" INDICATES FEW OR NO CLOUDS BELOW 12,000 FEET WITH NO
       SIGNIFICANT WEATHER AND/OR OBSTRUCTIONS TO VISIBILITY.

  * THESE STATIONS DO NOT REPORT WEATHER SUCH AS RAIN...SNOW OR FOG.

NEZ001>004-019>022-054>056-302100-
NEBRASKA PANHANDLE

CITY           SKY/WX    TMP DP  RH WIND       PRES   REMARKS
SCOTTSBLUFF    CLOUDY    41  28  60 NW6       30.14F
ALLIANCE       CLOUDY    47  24  40 CALM      30.13F
CHADRON        PTSUNNY   48  27  44 W3        30.14F
SIDNEY         CLOUDY    45  28  51 SW8       30.13F
$$

NEZ057>060-069>072-079>082-302100-
SOUTHWEST NEBRASKA

CITY           SKY/WX    TMP DP  RH WIND       PRES   REMARKS
NORTH PLATTE   PTSUNNY   48  26  42 S12       30.19F
IMPERIAL       CLOUDY    53  31  42 S20       30.16F
MCCOOK         CLOUDY    49  27  42 S13G22    30.23F
$$

NEZ005>010-023>029-035>040-094-302100-
NORTH CENTRAL NEBRASKA

CITY           SKY/WX    TMP DP  RH WIND       PRES   REMARKS
VALENTINE      PTSUNNY   50  25  37 SW15      30.14F
BROKEN BOW     PTSUNNY   46  26  45 S17       30.22F
ORD            PTSUNNY   43  25  49 S17G25    30.26F
$$

NEZ041-046>049-061>064-073>077-083>087-302100-
SOUTH CENTRAL NEBRASKA

CITY           SKY/WX    TMP DP  RH WIND       PRES   REMARKS
GRAND ISLAND   PTSUNNY   44  26  49 S21       30.32F
HASTINGS       PTSUNNY   45  24  43 S13G21    30.32F
KEARNEY *      CLOUDY    45  25  45 S18       30.29F
$$

NEZ011>018-030>034-042>045-302100-
NORTHEAST NEBRASKA

CITY           SKY/WX    TMP DP  RH WIND       PRES   REMARKS
NORFOLK        MOSUNNY   42  27  55 S17       30.29F
COLUMBUS *     PTSUNNY   39  25  56 SW14G20   30.35F WCI  31
TEKAMAH        SUNNY     38  24  57 S16       30.38F WCI  29
$$

NEZ050>053-065>068-078-088>093-302100-
SOUTHEAST NEBRASKA

CITY           SKY/WX    TMP DP  RH WIND       PRES   REMARKS
LINCOLN        PTSUNNY   40  25  55 S12       30.39F WCI  33
OMAHA EPPLEY   CLOUDY    35  22  58 S12       30.40F WCI  27
FALLS CITY     PTSUNNY   37  22  54 SW5       30.44F WCI  33
$$

NEZ044-045-051>053-067-302100-
OMAHA AREA

CITY           SKY/WX    TMP DP  RH WIND       PRES   REMARKS
OMAHA EPPLEY   CLOUDY    35  22  58 S12       30.40F WCI  27
OFFUTT AFB     MOSUNNY   35  22  58 S8        30.40F WCI  29
$$



USA.gov is the U.S. government's official web portal to all federal, state and local government web resources and services.